全部
Mundine Airport YDNE 天气
There is no TAF data available at YDNE or any nearby airports.
There is no METAR data available at YDNE. Showing METAR data for YGDI (12 mi NE).
GOO近期METAR历史数据(YDNE无数据)
| Date | Time (AEST) | Flight Rules | Wind Dir. | Speed | Type | Height AGL (ft) | Visibility | Temp (°C) | Temp (°F) | Dew Point (°C) | Dew Point (°F) | Rel. Humid. | Pressure | Density Altitude | Remarks |
|---|---|---|---|---|---|---|---|---|---|---|---|---|---|---|---|
| 04-五月 | 16:00 | n/a | 300° | 4 kt | Missing | 29° | 84° | 11° | 51° | 33% | 1015 mb | 2,341 ft | |||
| 04-五月 | 15:00 | n/a | 290° | 3 kt | Missing | 29° | 84° | 12° | 53° | 35% | 1015 mb | 2,341 ft | |||
| 04-五月 | 14:00 | n/a | 260° | 3 kt | Missing | 29° | 84° | 11° | 51° | 33% | 1015 mb | 2,341 ft | |||
| 04-五月 | 13:00 | n/a | 340° | 5 kt | Missing | 28° | 82° | 11° | 51° | 35% | 1016 mb | 2,192 ft | |||
| 04-五月 | 12:00 | n/a | 320° | 4 kt | Missing | 27° | 80° | 12° | 53° | 39% | 1017 mb | 2,042 ft | |||
| 04-五月 | 11:00 | n/a | 30° | 6 kt | Missing | 25° | 77° | 13° | 55° | 47% | 1018 mb | 1,772 ft | |||
| 04-五月 | 10:00 | n/a | 20° | 9 kt | Missing | 23° | 73° | 14° | 57° | 57% | 1019 mb | 1,503 ft | |||
| 04-五月 | 09:00 | n/a | 50° | 8 kt | Missing | 21° | 69° | 14° | 57° | 64% | 1019 mb | 1,263 ft | |||
| 04-五月 | 08:00 | n/a | 70° | 6 kt | Missing | 18° | 64° | 14° | 57° | 77% | 1019 mb | 903 ft | |||
| 04-五月 | 07:00 | n/a | 80° | 3 kt | Missing | 15° | 59° | 13° | 55° | 88% | 1018 mb | 572 ft | |||
| 04-五月 | 06:00 | n/a | 90° | 5 kt | Missing | 15° | 59° | 13° | 55° | 88% | 1018 mb | 572 ft | |||
| 04-五月 | 05:00 | n/a | 80° | 3 kt | Missing | 14° | 57° | 12° | 53° | 88% | 1018 mb | 452 ft | |||
| 04-五月 | 04:00 | n/a | 70° | 4 kt | Missing | 16° | 60° | 13° | 55° | 82% | 1018 mb | 692 ft | |||
| 04-五月 | 03:00 | n/a | 70° | 4 kt | Missing | 17° | 62° | 13° | 55° | 77% | 1018 mb | 812 ft | |||
| 04-五月 | 02:00 | n/a | 60° | 5 kt | Missing | 18° | 64° | 13° | 55° | 73% | 1018 mb | 932 ft | |||
| 04-五月 | 01:00 | n/a | 60° | 5 kt | Missing | 18° | 64° | 12° | 53° | 68% | 1018 mb | 932 ft | |||
| 04-五月 | 00:00 | n/a | 70° | 7 kt | Missing | 19° | 66° | 12° | 53° | 64% | 1018 mb | 1,052 ft | |||
| 03-五月 | 23:00 | n/a | 60° | 6 kt | Missing | 20° | 68° | 11° | 51° | 56% | 1019 mb | 1,143 ft | |||
| 03-五月 | 22:00 | n/a | 60° | 7 kt | Missing | 20° | 68° | 9° | 48° | 49% | 1019 mb | 1,143 ft | |||
| 03-五月 | 21:00 | n/a | 100° | 5 kt | Missing | 20° | 68° | 7° | 44° | 43% | 1019 mb | 1,143 ft | |||
| 03-五月 | 20:00 | n/a | 50° | 5 kt | Missing | 22° | 71° | 8° | 46° | 41% | 1018 mb | 1,412 ft | |||
| 03-五月 | 19:00 | n/a | 50° | 3 kt | Missing | 21° | 69° | 7° | 44° | 40% | 1018 mb | 1,292 ft | |||
| 03-五月 | 18:00 | n/a | 50° | 4 kt | Missing | 24° | 75° | 7° | 44° | 34% | 1017 mb | 1,682 ft | |||
| 03-五月 | 17:00 | n/a | 70° | 4 kt | Missing | 27° | 80° | 8° | 46° | 30% | 1017 mb | 2,042 ft |
登录
| 您的浏览器不支持. 升级您的浏览器 |
